FW0394 Weather Reports


Display with metric or nautical units.
time (UTC)temp
F
wind
direction
speed
MPH
gust
MPH
rain 1hr
in
rain 24hr
in
rain mn
in
humidity
%
barometer
mb
20260904073503 82 210 5.0 15.0 0.00 0.01 0.00 67 1009.7
20260904073213 82 209 5.0 15.0 0.00 0.01 0.00 67 1009.7
20260904072503 82 210 5.0 12.0 0.00 0.01 0.00 67 1009.7
20260904072003 82 208 5.0 12.0 0.00 0.01 0.00 67 1009.8
20260904071503 82 197 4.0 9.0 0.00 0.01 0.00 66 1009.7
20260904071214 82 196 5.0 11.0 0.00 0.01 0.00 66 1009.7
20260904070714 82 196 5.0 11.0 0.00 0.01 0.00 66 1009.7
20260904070003 82 195 5.0 14.0 0.00 0.01 0.00 66 1009.7
20260904065503 83 196 5.0 14.0 0.00 0.01 0.00 65 1009.8
20260904065004 83 191 5.0 13.0 0.00 0.01 0.00 65 1009.7
20260904064503 83 191 5.0 13.0 0.00 0.01 0.00 65 1009.7
20260904064214 83 197 5.0 13.0 0.00 0.01 0.00 65 1009.7
20260904063713 83 195 5.0 12.0 0.00 0.01 0.00 65 1009.7
20260904063212 83 191 5.0 12.0 0.00 0.01 0.00 65 1009.8
20260904062713 83 190 5.0 12.0 0.00 0.01 0.00 65 1009.7
20260904062214 83 189 5.0 14.0 0.00 0.01 0.00 65 1009.8
20260904061503 83 187 5.0 11.0 0.00 0.01 0.00 65 1009.7
20260904061003 83 180 5.0 10.0 0.00 0.01 0.00 65 1009.7
20260904060503 83 181 5.0 12.0 0.00 0.01 0.00 65 1009.6
20260904060003 83 182 5.0 12.0 0.00 0.01 0.00 65 1009.6
20260904055503 83 183 5.0 12.0 0.00 0.01 0.00 65 1009.6
20260904055003 83 182 5.0 12.0 0.00 0.01 0.00 65 1009.6
20260904054503 83 185 5.0 14.0 0.00 0.01 0.00 65 1009.5
20260904054003 83 189 6.0 14.0 0.00 0.01 0.00 65 1009.5
20260904053503 83 182 6.0 14.0 0.00 0.01 0.00 65 1009.4
20260904053214 84 179 6.0 16.0 0.00 0.01 0.00 64 1009.4
20260904052504 84 178 5.0 16.0 0.00 0.01 0.00 64 1009.3
20260904052003 84 180 5.0 11.0 0.00 0.01 0.00 64 1009.3
20260904051503 84 175 7.0 14.0 0.00 0.01 0.00 64 1009.2
20260904051004 84 169 7.0 14.0 0.00 0.01 0.00 63 1009.3
20260904050713 84 169 6.0 16.0 0.00 0.01 0.00 63 1009.2
20260904050214 84 169 5.0 16.0 0.00 0.01 0.00 63 1009.3
20260904045503 84 163 6.0 13.0 0.00 0.01 0.01 63 1009.2
20260904045003 84 162 6.0 13.0 0.00 0.01 0.01 63 1009.2
20260904044503 84 158 5.0 12.0 0.00 0.01 0.01 64 1009.2
20260904044003 84 155 4.0 12.0 0.00 0.01 0.01 64 1009.1
20260904043503 84 155 4.0 8.0 0.00 0.01 0.01 64 1009.1
20260904043003 84 151 4.0 12.0 0.00 0.01 0.01 64 1009.1
20260904042715 84 150 4.0 12.0 0.00 0.01 0.01 64 1009.1
20260904042003 84 148 6.0 11.0 0.00 0.01 0.01 64 1009.2
20260904041712 84 151 6.0 11.0 0.00 0.01 0.01 65 1009.2
20260904041004 84 153 5.0 10.0 0.00 0.01 0.01 65 1009.2
20260904040503 84 154 5.0 11.0 0.00 0.01 0.01 65 1009.3
20260904040213 84 150 4.0 11.0 0.00 0.01 0.01 65 1009.3
20260904035503 84 148 4.0 11.0 0.00 0.01 0.01 65 1009.3
20260904035003 84 148 5.0 11.0 0.00 0.01 0.01 66 1009.3
20260904034504 84 148 4.0 10.0 0.00 0.01 0.01 66 1009.3
20260904034004 84 143 3.0 8.0 0.00 0.01 0.01 67 1009.4
20260904033503 84 143 3.0 10.0 0.00 0.01 0.01 67 1009.4
20260904033003 84 142 3.0 10.0 0.00 0.01 0.01 68 1009.3
20260904032714 84 139 3.0 8.0 0.00 0.01 0.01 67 1009.4
20260904032003 84 145 3.0 8.0 0.00 0.01 0.01 67 1009.4
20260904031503 84 145 4.0 8.0 0.00 0.01 0.01 67 1009.3
20260904031003 84 148 4.0 9.0 0.00 0.01 0.01 67 1009.3
20260904030504 84 148 4.0 11.0 0.00 0.01 0.01 67 1009.2
20260904030213 84 144 3.0 11.0 0.00 0.01 0.01 67 1009.1
20260904025714 84 140 3.0 10.0 0.00 0.01 0.01 67 1009.1
20260904025003 84 133 3.0 7.0 0.00 0.01 0.01 67 1009.1
20260904024503 85 142 3.0 8.0 0.00 0.01 0.01 66 1009.1
20260904024213 85 141 3.0 8.0 0.00 0.01 0.01 66 1009.0
20260904023503 85 134 3.0 10.0 0.00 0.01 0.01 66 1009.0
20260904023003 85 139 3.0 10.0 0.00 0.01 0.01 66 1009.0
20260904022503 85 144 3.0 8.0 0.00 0.01 0.01 66 1008.9
20260904022003 86 137 3.0 8.0 0.00 0.01 0.01 65 1008.9
20260904021503 86 131 2.0 8.0 0.00 0.01 0.01 65 1008.9
20260904021003 86 137 3.0 7.0 0.00 0.01 0.01 64 1008.8
20260904020503 86 142 4.0 8.0 0.00 0.01 0.01 64 1008.8
20260904020003 86 140 3.0 8.0 0.00 0.01 0.01 64 1008.9
20260904015503 87 141 3.0 8.0 0.00 0.01 0.01 64 1008.8
20260904015003 87 150 3.0 8.0 0.00 0.01 0.01 63 1008.7
20260904014503 87 145 4.0 10.0 0.00 0.01 0.01 62 1008.7
20260904014003 88 141 5.0 11.0 0.00 0.01 0.01 62 1008.6
20260904013503 88 146 5.0 14.0 0.00 0.01 0.01 62 1008.4
20260904013004 88 146 5.0 14.0 0.00 0.01 0.01 62 1008.4
20260904012713 88 142 4.0 14.0 0.00 0.01 0.01 62 1008.3
20260904012003 88 147 4.0 8.0 0.00 0.01 0.01 63 1008.3
20260904011503 88 151 4.0 10.0 0.00 0.01 0.01 63 1008.2
20260904011003 88 147 4.0 10.0 0.00 0.01 0.01 63 1008.1
20260904010503 89 142 3.0 10.0 0.00 0.01 0.01 63 1008.1
20260904010003 89 147 3.0 8.0 0.00 0.01 0.01 63 1008.1
20260904005713 89 150 3.0 8.0 0.00 0.01 0.01 62 1008.0
20260904005003 90 148 4.0 11.0 0.00 0.01 0.01 61 1008.0
20260904004503 90 148 4.0 11.0 0.00 0.01 0.01 61 1008.0
20260904004214 90 147 4.0 11.0 0.00 0.01 0.01 60 1008.0
20260904003503 90 144 4.0 10.0 0.00 0.01 0.01 59 1007.9
20260904003003 91 149 4.0 8.0 0.00 0.01 0.01 59 1007.9
20260904002504 91 152 4.0 11.0 0.00 0.01 0.01 58 1007.9
20260904002214 91 156 5.0 11.0 0.00 0.01 0.01 58 1007.9
20260904001503 92 158 5.0 11.0 0.00 0.01 0.01 57 1007.9
20260904001003 92 154 5.0 13.0 0.00 0.01 0.01 56 1007.9
20260904000503 92 157 6.0 13.0 0.00 0.01 0.01 56 1007.9
20260904000003 92 159 5.0 13.0 0.00 0.01 0.01 55 1007.9
20260903235503 93 161 5.0 11.0 0.00 0.01 0.01 55 1007.8
20260903235214 93 163 5.0 11.0 0.00 0.01 0.01 55 1007.7
20260903234503 93 160 5.0 13.0 0.00 0.01 0.01 54 1007.7
20260903234003 93 159 5.0 13.0 0.00 0.01 0.01 55 1007.7
20260903233503 94 154 5.0 10.0 0.00 0.01 0.01 53 1007.7
20260903233214 94 156 5.0 12.0 0.00 0.01 0.01 54 1007.6
20260903232503 94 166 5.0 14.0 0.00 0.01 0.01 53 1007.7
20260903232004 94 159 5.0 14.0 0.00 0.01 0.01 52 1007.7
20260903231503 94 152 7.0 16.0 0.00 0.01 0.01 53 1007.6
20260903231003 94 153 6.0 16.0 0.00 0.01 0.01 52 1007.5
20260903230713 95 153 6.0 16.0 0.00 0.01 0.01 52 1007.5
20260903230213 95 153 5.0 11.0 0.00 0.01 0.01 53 1007.6
20260903225503 95 151 6.0 11.0 0.00 0.01 0.01 52 1007.5
20260903225003 95 156 6.0 14.0 0.00 0.01 0.01 52 1007.5
20260903224503 96 150 7.0 15.0 0.00 0.01 0.01 51 1007.5
20260903224003 96 160 6.0 15.0 0.00 0.01 0.01 51 1007.5
20260903223503 96 174 6.0 15.0 0.00 0.01 0.01 52 1007.5
20260903223003 96 164 5.0 14.0 0.00 0.01 0.01 51 1007.4
20260903222503 96 153 5.0 14.0 0.00 0.01 0.01 51 1007.4
20260903222003 96 145 6.0 14.0 0.00 0.01 0.01 51 1007.4
20260903221504 96 152 6.0 14.0 0.00 0.01 0.01 52 1007.4
20260903221003 96 173 7.0 18.0 0.00 0.01 0.01 52 1007.4
20260903220503 96 171 8.0 18.0 0.00 0.01 0.01 52 1007.4
20260903220003 96 154 8.0 16.0 0.00 0.01 0.01 52 1007.4
20260903215714 97 153 7.0 16.0 0.00 0.01 0.01 51 1007.5
20260903215003 97 175 5.0 14.0 0.00 0.01 0.01 53 1007.5
20260903214503 97 166 6.0 12.0 0.00 0.01 0.01 53 1007.5
20260903214003 96 155 7.0 14.0 0.00 0.01 0.01 52 1007.5
20260903213503 96 151 7.0 14.0 0.00 0.01 0.01 52 1007.6
20260903213003 97 148 7.0 13.0 0.00 0.01 0.01 51 1007.6
20260903212503 97 164 7.0 15.0 0.00 0.01 0.01 50 1007.5
20260903212003 97 181 6.0 15.0 0.00 0.01 0.01 51 1007.6
20260903211714 97 180 5.0 15.0 0.00 0.01 0.01 49 1007.5
20260903211004 97 182 7.0 15.0 0.00 0.01 0.01 50 1007.6
20260903210503 97 190 7.0 15.0 0.00 0.01 0.01 50 1007.6
20260903210003 97 201 7.0 18.0 0.00 0.01 0.01 50 1007.6
20260903205503 96 201 7.0 19.0 0.00 0.01 0.01 52 1007.8
20260903205213 96 195 8.0 19.0 0.00 0.01 0.01 49 1007.7
20260903204503 96 179 8.0 18.0 0.00 0.01 0.01 48 1007.9
20260903204003 96 175 8.0 18.0 0.00 0.01 0.01 48 1007.9
20260903203503 96 175 7.0 16.0 0.00 0.01 0.01 50 1008.0
20260903203003 96 178 7.0 16.0 0.00 0.01 0.01 53 1008.0
20260903202503 96 170 7.0 15.0 0.00 0.01 0.01 52 1008.0
20260903202003 96 162 8.0 18.0 0.00 0.01 0.01 52 1008.0
20260903201503 96 177 8.0 18.0 0.00 0.01 0.01 50 1008.0
20260903201003 96 195 6.0 14.0 0.00 0.01 0.01 51 1008.1
20260903200714 96 185 6.0 12.0 0.00 0.01 0.01 51 1008.1
20260903200003 96 178 6.0 22.0 0.00 0.01 0.01 49 1008.2
20260903195503 96 190 6.0 16.0 0.00 0.01 0.01 50 1008.2
20260903195003 96 178 7.0 17.0 0.00 0.01 0.01 50 1008.3
20260903194713 96 175 7.0 17.0 0.00 0.01 0.01 49 1008.3
20260903194003 95 168 5.0 15.0 0.00 0.01 0.01 52 1008.3
20260903193713 95 155 6.0 15.0 0.00 0.01 0.01 57 1008.4
20260903193214 94 148 6.0 12.0 0.00 0.01 0.01 58 1008.4
20260903192503 94 145 6.0 14.0 0.00 0.01 0.01 57 1008.5
20260903192003 94 145 6.0 14.0 0.00 0.01 0.01 57 1008.6
20260903191503 94 147 5.0 12.0 0.00 0.01 0.01 56 1008.6
20260903191003 93 147 5.0 15.0 0.00 0.01 0.01 58 1008.7
20260903190503 93 145 5.0 15.0 0.00 0.01 0.01 59 1008.9
20260903190004 93 145 6.0 16.0 0.00 0.01 0.01 60 1008.9
20260903185503 92 145 6.0 16.0 0.00 0.01 0.01 60 1009.0
20260903185003 92 143 6.0 14.0 0.00 0.01 0.01 58 1009.0
20260903184713 92 143 6.0 14.0 0.00 0.01 0.01 59 1009.0
20260903184003 92 150 4.0 12.0 0.00 0.01 0.01 61 1009.1
20260903183713 92 171 4.0 11.0 0.00 0.01 0.01 60 1009.2
20260903183004 91 193 6.0 13.0 0.00 0.01 0.01 58 1009.3
20260903182503 91 191 6.0 11.0 0.00 0.01 0.01 61 1009.5
20260903182003 91 161 5.0 11.0 0.00 0.01 0.01 60 1009.6
20260903181503 91 133 4.0 12.0 0.00 0.01 0.01 61 1009.6
20260903181004 90 169 4.0 12.0 0.00 0.01 0.01 60 1009.7
20260903180503 90 170 4.0 11.0 0.00 0.01 0.01 64 1009.8
20260903180003 90 162 5.0 11.0 0.00 0.01 0.01 62 1009.8
20260903175503 90 154 5.0 14.0 0.00 0.01 0.01 62 1009.7
20260903175003 90 145 5.0 14.0 0.00 0.01 0.01 64 1009.8
20260903174503 89 159 4.0 9.0 0.00 0.01 0.01 62 1009.8
20260903174005 89 172 4.0 9.0 0.00 0.01 0.01 61 1009.8
20260903173503 89 196 3.0 8.0 0.00 0.01 0.01 62 1009.9
20260903173003 88 184 4.0 11.0 0.00 0.01 0.01 64 1010.1
20260903172504 88 165 5.0 11.0 0.00 0.01 0.01 61 1010.1
20260903172213 88 159 5.0 13.0 0.00 0.01 0.01 62 1010.2
20260903171503 88 168 6.0 13.0 0.00 0.01 0.01 64 1010.0
20260903171003 87 171 6.0 13.0 0.00 0.01 0.01 63 1010.1
20260903170503 87 168 4.0 10.0 0.00 0.01 0.01 63 1010.2
20260903170003 86 167 2.0 10.0 0.00 0.01 0.01 64 1010.3
20260903165712 86 176 2.0 8.0 0.00 0.01 0.01 66 1010.4
20260903165003 85 183 3.0 9.0 0.00 0.01 0.01 66 1010.4
20260903164503 84 177 2.0 7.0 0.00 0.01 0.01 67 1010.4
20260903164004 84 169 2.0 7.0 0.00 0.01 0.01 68 1010.4
20260903163503 84 153 4.0 11.0 0.00 0.01 0.01 68 1010.3
20260903163003 84 154 5.0 13.0 0.00 0.01 0.01 67 1010.1
20260903162503 84 157 4.0 13.0 0.00 0.01 0.01 69 1010.2
20260903162003 84 147 4.0 10.0 0.00 0.01 0.01 70 1010.1
20260903161503 83 152 4.0 10.0 0.00 0.01 0.01 69 1010.3
20260903161003 83 161 3.0 9.0 0.00 0.01 0.01 70 1010.4
20260903160503 84 143 4.0 11.0 0.00 0.01 0.01 70 1010.2
20260903160003 84 135 5.0 11.0 0.00 0.01 0.01 67 1010.2
20260903155504 84 140 5.0 10.0 0.00 0.01 0.01 67 1010.2
20260903155008 84 146 4.0 9.0 0.00 0.01 0.01 67 1010.3
20260903154503 84 148 2.0 9.0 0.00 0.01 0.01 67 1010.4
20260903154213 84 152 2.0 7.0 0.00 0.01 0.01 69 1010.3
20260903153503 84 139 3.0 9.0 0.00 0.01 0.01 69 1010.3
20260903153003 83 143 2.0 7.0 0.00 0.01 0.01 71 1010.4
20260903152503 83 137 0.0 4.0 0.00 0.01 0.01 72 1010.5
20260903152215 82 0 0.0 0.0 0.00 0.01 0.01 72 1010.6
20260903151713 82 136 0.0 2.0 0.00 0.01 0.01 70 1010.6
20260903151003 82 136 0.0 2.0 0.00 0.01 0.01 72 1010.4
20260903150503 82 0 0.0 0.0 0.00 0.01 0.01 70 1010.6
20260903150003 82 136 0.0 1.0 0.00 0.01 0.01 69 1010.5
20260903145503 82 139 1.0 5.0 0.00 0.01 0.01 70 1010.3
20260903145003 82 144 3.0 8.0 0.00 0.01 0.01 69 1010.2
20260903144508 82 144 3.0 8.0 0.00 0.01 0.01 69 1010.1
20260903144004 82 136 3.0 9.0 0.00 0.01 0.01 70 1010.2
20260903143503 82 133 3.0 9.0 0.00 0.01 0.01 69 1010.2
20260903143004 82 131 3.0 8.0 0.00 0.01 0.01 70 1010.2
20260903142503 81 130 3.0 7.0 0.00 0.01 0.01 70 1010.1
20260903142003 81 141 3.0 8.0 0.00 0.01 0.01 70 1010.1
20260903141503 81 138 2.0 8.0 0.00 0.01 0.01 70 1010.1
20260903141214 81 141 2.0 7.0 0.00 0.01 0.01 70 1010.0
20260903140503 81 138 3.0 7.0 0.00 0.01 0.01 69 1010.1
20260903140004 81 141 3.0 8.0 0.00 0.01 0.01 70 1010.1
20260903135503 81 140 3.0 10.0 0.00 0.03 0.01 69 1010.1
20260903135003 81 138 2.0 10.0 0.00 0.03 0.01 71 1010.1
20260903134503 80 142 2.0 4.0 0.00 0.03 0.01 71 1010.0
20260903134003 80 147 2.0 6.0 0.00 0.03 0.01 70 1010.0
20260903133503 80 158 1.0 6.0 0.00 0.03 0.01 70 1010.1
20260903133004 80 191 0.0 3.0 0.00 0.03 0.01 71 1010.2
20260903132503 80 0 0.0 0.0 0.00 0.03 0.01 71 1010.2
20260903132004 80 0 0.0 0.0 0.00 0.03 0.01 70 1010.3
20260903131503 80 0 0.0 0.0 0.00 0.03 0.01 70 1010.3
20260903131003 80 0 0.0 1.0 0.00 0.03 0.01 71 1010.3
20260903130504 80 0 0.0 1.0 0.00 0.03 0.01 71 1010.2
20260903130004 80 0 0.0 0.0 0.00 0.03 0.01 72 1010.2
20260903125503 80 0 0.0 0.0 0.00 0.03 0.01 72 1010.2
20260903125214 80 266 0.0 2.0 0.00 0.03 0.01 71 1010.2
20260903124503 80 266 1.0 2.0 0.00 0.03 0.01 72 1010.3
20260903124003 80 266 1.0 3.0 0.00 0.03 0.01 71 1010.3
20260903123503 80 265 0.0 3.0 0.00 0.03 0.01 70 1010.4
20260903123003 80 265 0.0 1.0 0.00 0.03 0.01 69 1010.3
20260903122503 80 266 0.0 4.0 0.00 0.03 0.01 69 1010.3
20260903122003 80 266 0.0 4.0 0.00 0.03 0.01 68 1010.3
20260903121503 80 224 0.0 4.0 0.00 0.03 0.01 69 1010.2
20260903121003 80 221 1.0 4.0 0.00 0.03 0.01 70 1010.2
20260903120503 80 228 1.0 4.0 0.00 0.03 0.01 69 1010.0
20260903120003 80 232 1.0 5.0 0.00 0.03 0.01 69 1010.0
20260903115504 80 226 2.0 5.0 0.00 0.03 0.01 69 1009.9
20260903115003 80 231 2.0 6.0 0.00 0.03 0.01 69 1009.9
20260903114503 80 239 2.0 7.0 0.00 0.03 0.01 70 1010.0
20260903114213 80 227 2.0 7.0 0.00 0.03 0.01 70 1010.1
20260903113503 80 203 3.0 6.0 0.01 0.03 0.01 69 1009.9
20260903113003 79 193 2.0 6.0 0.01 0.03 0.01 71 1009.9
20260903112503 79 204 2.0 7.0 0.01 0.03 0.01 72 1009.8
20260903112003 78 212 2.0 7.0 0.01 0.03 0.01 73 1009.7
20260903111503 78 197 3.0 10.0 0.01 0.03 0.01 73 1009.7
20260903111213 78 195 4.0 10.0 0.01 0.03 0.01 73 1009.6
20260903110503 78 190 3.0 8.0 0.01 0.03 0.01 75 1009.4
20260903110003 77 182 2.0 7.0 0.01 0.03 0.01 77 1009.5
20260903105504 77 172 2.0 6.0 0.01 0.03 0.01 77 1009.7
20260903105003 78 163 2.0 6.0 0.01 0.03 0.01 76 1009.8
20260903104503 78 158 2.0 6.0 0.01 0.03 0.01 76 1009.8
20260903104003 78 156 1.0 6.0 0.01 0.03 0.01 76 1009.8
20260903103503 78 170 0.0 4.0 0.00 0.03 0.00 76 1009.9
20260903103003 79 0 0.0 0.0 0.00 0.03 0.00 75 1010.0
20260903102504 79 219 0.0 1.0 0.00 0.03 0.00 73 1010.0
20260903102003 79 219 0.0 1.0 0.00 0.03 0.00 74 1009.9
20260903101504 80 220 0.0 4.0 0.00 0.03 0.00 72 1010.0
20260903101003 80 231 1.0 4.0 0.00 0.03 0.00 71 1009.8
20260903100503 80 203 2.0 7.0 0.00 0.03 0.00 70 1009.8
20260903100004 81 184 3.0 9.0 0.00 0.03 0.00 67 1009.8
20260903095503 81 179 3.0 9.0 0.00 0.03 0.00 64 1009.6
20260903095003 81 181 3.0 7.0 0.00 0.03 0.00 64 1009.5
20260903094503 81 178 3.0 10.0 0.00 0.03 0.00 64 1009.5
20260903094003 81 169 3.0 10.0 0.00 0.03 0.00 64 1009.5
20260903093503 81 171 4.0 11.0 0.00 0.03 0.00 64 1009.5
20260903093003 81 172 4.0 11.0 0.00 0.03 0.00 64 1009.6
20260903092503 82 172 3.0 7.0 0.00 0.03 0.00 63 1009.5
20260903092008 82 178 3.0 6.0 0.00 0.03 0.00 63 1009.6
20260903091503 82 180 4.0 11.0 0.00 0.03 0.00 63 1009.6
20260903091003 82 179 5.0 11.0 0.00 0.03 0.00 63 1009.6
20260903090503 82 182 5.0 11.0 0.00 0.03 0.00 62 1009.6
20260903090003 82 189 4.0 12.0 0.00 0.03 0.00 63 1009.6
20260903085503 82 188 5.0 12.0 0.00 0.03 0.00 62 1009.6
20260903085003 82 183 5.0 12.0 0.00 0.03 0.00 62 1009.6
20260903084004 83 188 5.0 15.0 0.00 0.03 0.00 62 1009.6
20260903083713 83 185 5.0 12.0 0.00 0.03 0.00 62 1009.5
20260903083003 83 182 5.0 14.0 0.00 0.03 0.00 61 1009.6
20260903082503 83 187 5.0 16.0 0.00 0.03 0.00 62 1009.6
20260903082214 83 191 5.0 16.0 0.00 0.03 0.00 62 1009.6
20260903081503 83 185 5.0 16.0 0.00 0.03 0.00 61 1009.6
20260903081003 83 183 4.0 16.0 0.00 0.03 0.00 62 1009.5
20260903080503 83 190 4.0 12.0 0.00 0.03 0.00 61 1009.6
20260903080003 83 189 5.0 12.0 0.00 0.03 0.00 61 1009.6
20260903075503 83 184 4.0 9.0 0.00 0.03 0.00 60 1009.6
20260903075003 83 187 5.0 14.0 0.00 0.03 0.00 60 1009.6
20260903074503 84 188 5.0 14.0 0.00 0.03 0.00 60 1009.6
20260903074214 84 183 5.0 14.0 0.00 0.03 0.00 60 1009.6